This demonstration page uses our WeatherBlox Daily Observations layout. Learn more.

Left ArrowRight Arrow

34.16533, -84.80231

Hourly Observations for August 27, 2018

Temp ( °F °C ) Dew Point ( °F °C ) Humidity (%) Winds ( mph kmh ) Pressure ( in mb ) Visibility ( mi km ) Precip ( " mm )
12:53 am 00:53 Clear 69 20.6 69 20.6 100 100 Calm 30.16 1021 8 13 0.00 0.00
1:53 am 01:53 Clear 69 20.6 69 20.6 100 100 Calm 30.15 1021 7 11 0.00 0.00
2:53 am 02:53 Clear 69 20.6 69 20.6 100 100 Calm 30.13 1020 7 11 0.00 0.00
3:53 am 03:53 Clear with Mist and Fog 68 20 68 20 100 100 Calm 30.12 1020 6 10 0.00 0.00
4:53 am 04:53 Clear 69 20.6 69 20.6 100 100 Calm 30.12 1020 8 13 0.00 0.00
5:53 am 05:53 Clear 68 20 68 20 100 100 NE 3 6 30.12 1020 7 11 0.00 0.00
6:53 am 06:53 Clear 69 20.6 69 20.6 100 100 Calm 30.13 1020 8 13 0.00 0.00
7:53 am 07:53 Sunny with Mist and Fog 70 21.1 70 21.1 100 100 Calm 30.17 1022 6 10 0.00 0.00
8:53 am 08:53 Sunny 74 23.3 71 21.7 91 91 ESE 3 6 30.19 1022 8 13 0.00 0.00
9:53 am 09:53 Sunny 79 26.1 71 21.7 77 77 ESE 3 6 30.19 1022 10 16 0.00 0.00
10:53 am 10:53 Sunny 85 29.4 72 22.2 65 65 ESE 7 11 30.18 1022 10 16 0.00 0.00
11:53 am 11:53 Mostly Cloudy 83 28.3 71 21.7 67 67 S 5 7 30.19 1022 10 16 0.00 0.00
12:53 pm 12:53 Partly Cloudy 88 31.1 69 20.6 54 54 VRB 3 6 30.17 1022 10 16 0.00 0.00
1:53 pm 13:53 Mostly Sunny 91 32.8 69 20.6 49 49 VRB 5 7 30.15 1021 10 16 0.00 0.00
2:53 pm 14:53 Mostly Cloudy 89 31.7 67 19.4 48 48 ESE 6 9 30.13 1020 10 16 0.00 0.00
3:53 pm 15:53 Mostly Sunny 88 31.1 67 19.4 50 50 SSE 5 7 30.11 1020 10 16 0.00 0.00
4:53 pm 16:53 Sunny 90 32.2 68 20 48 48 VRB 5 7 30.09 1019 10 16 0.00 0.00
5:53 pm 17:53 Partly Cloudy 90 32.2 69 20.6 50 50 S 5 7 30.07 1018 10 16 0.00 0.00
6:53 pm 18:53 Sunny 88 31.1 70 21.1 55 55 SE 3 6 30.06 1018 10 16 0.00 0.00
7:53 pm 19:53 Sunny 80 26.7 75 23.9 85 85 Calm 30.07 1018 10 16 0.00 0.00
8:53 pm 20:53 Mostly Clear 75 23.9 73 22.8 94 94 Calm 30.08 1019 10 16 0.00 0.00
9:53 pm 21:53 Mostly Clear 73 22.8 73 22.8 100 100 Calm 30.11 1020 10 16 0.00 0.00
10:53 pm 22:53 Clear 73 22.8 72 22.2 96 96 Calm 30.12 1020 10 16 0.00 0.00
11:53 pm 23:53 Clear 72 22.2 72 22.2 100 100 Calm 30.12 1020 10 16 0.00 0.00

Powered by AerisWeather